Mineral Point, WI

10:35 AM CDT on May 25, 2017 (GMT -0500)
Iowa County

Weather History for KMRJ - August, 2014

Change the Weather History Date:

Thursday, August 14, 2014

  Actual Average (KLNR) Record (KLNR)
Temperature  
Mean Temperature 64 °F -  
Max Temperature 75 °F 78 °F 95 °F (2015)
Min Temperature 53 °F 56 °F 44 °F (2004)
Degree Days  
Heating Degree Days 1    
Growing Degree Days 14 (Base 50)    
Moisture  
Dew Point 48 °F    
Average Humidity 58    
Maximum Humidity 94    
Minimum Humidity 29    
Precipitation  
Precipitation 0.00 in - - ()
Sea Level Pressure  
Sea Level Pressure 30.10 in    
Wind  
Wind Speed 5 mph (NE)    
Max Wind Speed 9 mph    
Max Gust Speed -    
Visibility 10 miles    
Events      
Averages and records for this station are not official NWS values.
T = Trace of Precipitation, MM = Missing Value Source: NWS Daily Summary

Daily Weather History Graph

Daily Weather History Graph

Search for Another Location

Airport or City:

Trip Planner

Search our weather history database for the weather conditions in past years. The results will help you decide how hot, cold, wet, or windy it might be!

Date:

Astronomy

Aug. 14, 2014 Rise Set
Actual Time 6:06 AM CDT 8:04 PM CDT
Civil Twilight 5:35 AM CDT 8:35 PM CDT
Nautical Twilight 4:57 AM CDT 9:12 PM CDT
Astronomical Twilight 4:16 AM CDT 9:53 PM CDT
Moon 10:18 PM CDT (8/14) 10:50 AM CDT (8/14)
Length of Visible Light 14h 59m
Length of Day
13h 58m
Waning Gibbous, 79% of the Moon is Illuminated
Aug 14
Waning Gibbous
Aug 17
Last Quarter
Aug 25
New
Sep 2
First Quarter
Sep 8
Full

Hourly Weather History & Observations

Time (CDT) Temp. Dew Point Humidity Pressure Visibility Wind Dir Wind Speed Gust Speed Precip Events Conditions
12:15 AM 62.6 °F 50.0 °F 63% 30.08 in 10.0 mi North 4.6 mph - N/A   Scattered Clouds
12:35 AM 62.6 °F 50.0 °F 63% 30.09 in 10.0 mi North 4.6 mph - N/A   Mostly Cloudy
12:55 AM 62.6 °F 51.8 °F 68% 30.09 in 10.0 mi North 5.8 mph - N/A   Scattered Clouds
1:15 AM 62.6 °F 51.8 °F 68% 30.09 in 10.0 mi North 6.9 mph - N/A   Scattered Clouds
1:35 AM 60.8 °F 51.8 °F 72% 30.09 in 10.0 mi North 6.9 mph - N/A   Scattered Clouds
1:55 AM 60.8 °F 51.8 °F 72% 30.09 in 10.0 mi North 6.9 mph - N/A   Clear
2:15 AM 59.0 °F 53.6 °F 82% 30.09 in 10.0 mi North 6.9 mph - N/A   Clear
2:30 AM 59.0 °F 53.6 °F 82% 30.09 in 10.0 mi North 8.1 mph - N/A   Clear
2:55 AM 57.2 °F 53.6 °F 88% 30.09 in 10.0 mi North 6.9 mph - N/A   Clear
3:15 AM 57.2 °F 51.8 °F 82% 30.09 in 10.0 mi North 8.1 mph - N/A   Clear
3:35 AM 57.2 °F 51.8 °F 82% 30.09 in 10.0 mi North 6.9 mph - N/A   Clear
3:55 AM 55.4 °F 51.8 °F 88% 30.10 in 10.0 mi North 6.9 mph - N/A   Clear
4:15 AM 55.4 °F 50.0 °F 82% 30.10 in 10.0 mi NNE 4.6 mph - N/A   Clear
4:35 AM 55.4 °F 50.0 °F 82% 30.11 in 10.0 mi NE 3.5 mph - N/A   Clear
5:15 AM 55.4 °F 50.0 °F 82% 30.11 in 10.0 mi NE 5.8 mph - N/A   Clear
5:35 AM 55.4 °F 50.0 °F 82% 30.12 in 10.0 mi NE 4.6 mph - N/A   Clear
5:55 AM 53.6 °F 50.0 °F 88% 30.12 in 10.0 mi ENE 4.6 mph - N/A   Clear
6:15 AM 53.6 °F 50.0 °F 88% 30.12 in 10.0 mi ENE 3.5 mph - N/A   Clear
6:35 AM 53.6 °F 51.8 °F 94% 30.13 in 10.0 mi ENE 3.5 mph - N/A   Clear
6:55 AM 55.4 °F 51.8 °F 88% 30.13 in 10.0 mi ENE 4.6 mph - N/A   Clear
7:15 AM 55.4 °F 51.8 °F 88% 30.14 in 10.0 mi East 6.9 mph - N/A   Clear
7:35 AM 59.0 °F 53.6 °F 82% 30.14 in 10.0 mi ENE 6.9 mph - N/A   Clear
7:55 AM 59.0 °F 51.8 °F 77% 30.15 in 10.0 mi ENE 6.9 mph - N/A   Clear
8:15 AM 60.8 °F 50.0 °F 68% 30.15 in 10.0 mi East 9.2 mph - N/A   Clear
8:35 AM 60.8 °F 50.0 °F 68% 30.16 in 10.0 mi ESE 5.8 mph - N/A   Clear
8:55 AM 62.6 °F 48.2 °F 59% 30.15 in 10.0 mi East 9.2 mph - N/A   Clear
9:15 AM 62.6 °F 48.2 °F 59% 30.15 in 10.0 mi East 6.9 mph - N/A   Clear
9:35 AM 64.4 °F 48.2 °F 56% 30.15 in 10.0 mi East 5.8 mph - N/A   Clear
9:55 AM 64.4 °F 50.0 °F 59% 30.15 in 10.0 mi East 4.6 mph - N/A   Clear
10:15 AM 66.2 °F 50.0 °F 56% 30.15 in 10.0 mi NE 3.5 mph - N/A   Clear
10:35 AM 68.0 °F 50.0 °F 52% 30.15 in 10.0 mi NE 4.6 mph - N/A   Clear
10:55 AM 68.0 °F 50.0 °F 52% 30.15 in 10.0 mi ENE 3.5 mph - N/A   Clear
11:15 AM 68.0 °F 50.0 °F 52% 30.15 in 10.0 mi North 4.6 mph - N/A   Clear
11:35 AM 69.8 °F 48.2 °F 46% 30.15 in 10.0 mi NNW 4.6 mph - N/A   Clear
11:55 AM 69.8 °F 44.6 °F 40% 30.15 in 10.0 mi NNE 6.9 mph - N/A   Clear
12:15 PM 71.6 °F 44.6 °F 38% 30.14 in 10.0 mi North 6.9 mph - N/A   Clear
12:35 PM 71.6 °F 42.8 °F 35% 30.13 in 10.0 mi ENE 5.8 mph - N/A   Clear
12:55 PM 71.6 °F 42.8 °F 35% 30.12 in 10.0 mi North 4.6 mph - N/A   Clear
1:15 PM 71.6 °F 44.6 °F 38% 30.12 in 10.0 mi NE 6.9 mph - N/A   Clear
1:35 PM 71.6 °F 42.8 °F 35% 30.12 in 10.0 mi NE 4.6 mph - N/A   Clear
1:55 PM 71.6 °F 44.6 °F 38% 30.12 in 10.0 mi North 4.6 mph - N/A   Clear
2:15 PM 73.4 °F 44.6 °F 36% 30.11 in 10.0 mi NE 4.6 mph - N/A   Clear
2:35 PM 73.4 °F 41.0 °F 31% 30.10 in 10.0 mi Calm Calm - N/A   Clear
2:55 PM 73.4 °F 44.6 °F 36% 30.10 in 10.0 mi NW 3.5 mph - N/A   Clear
3:15 PM 73.4 °F 44.6 °F 36% 30.10 in 10.0 mi Calm Calm - N/A   Clear
3:35 PM 73.4 °F 44.6 °F 36% 30.09 in 10.0 mi NNE 5.8 mph - N/A   Clear
3:55 PM 73.4 °F 42.8 °F 33% 30.09 in 10.0 mi Calm Calm - N/A   Clear
4:15 PM 75.2 °F 41.0 °F 29% 30.09 in 10.0 mi NW 3.5 mph - N/A   Clear
4:35 PM 75.2 °F 42.8 °F 31% 30.08 in 10.0 mi NW 3.5 mph - N/A   Clear
4:55 PM 73.4 °F 42.8 °F 33% 30.08 in 10.0 mi Calm Calm - N/A   Clear
5:15 PM 75.2 °F 44.6 °F 34% 30.08 in 10.0 mi Calm Calm - N/A   Clear
5:35 PM 75.2 °F 44.6 °F 34% 30.07 in 10.0 mi NW 4.6 mph - N/A   Clear
5:55 PM 73.4 °F 44.6 °F 36% 30.07 in 10.0 mi Calm Calm - N/A   Clear
6:15 PM 73.4 °F 46.4 °F 38% 30.07 in 10.0 mi Calm Calm - N/A   Clear
6:35 PM 73.4 °F 44.6 °F 36% 30.07 in 10.0 mi Calm Calm - N/A   Clear
6:55 PM 71.6 °F 44.6 °F 38% 30.06 in 10.0 mi Calm Calm - N/A   Clear
7:15 PM 71.6 °F 46.4 °F 41% 30.06 in 10.0 mi Calm Calm - N/A   Clear
7:35 PM 69.8 °F 46.4 °F 43% 30.06 in 10.0 mi Calm Calm - N/A   Clear
7:55 PM 69.8 °F 46.4 °F 43% 30.06 in 10.0 mi ENE 3.5 mph - N/A   Clear
8:15 PM 66.2 °F 50.0 °F 56% 30.06 in 10.0 mi ENE 3.5 mph - N/A   Clear
8:35 PM 66.2 °F 50.0 °F 56% 30.06 in 10.0 mi East 3.5 mph - N/A   Clear
8:55 PM 64.4 °F 50.0 °F 59% 30.06 in 10.0 mi Calm Calm - N/A   Clear
9:15 PM 64.4 °F 50.0 °F 59% 30.07 in 10.0 mi Calm Calm - N/A   Clear
9:35 PM 62.6 °F 50.0 °F 63% 30.07 in 10.0 mi Calm Calm - N/A   Clear
9:55 PM 62.6 °F 48.2 °F 59% 30.07 in 10.0 mi ESE 4.6 mph - N/A   Clear
10:15 PM 60.8 °F 50.0 °F 68% 30.06 in 10.0 mi ESE 4.6 mph - N/A   Clear
10:35 PM 60.8 °F 50.0 °F 68% 30.06 in 10.0 mi ESE 4.6 mph - N/A   Clear
10:55 PM 60.8 °F 50.0 °F 68% 30.07 in 10.0 mi SE 3.5 mph - N/A   Clear
11:15 PM 60.8 °F 50.0 °F 68% 30.07 in 10.0 mi ESE 3.5 mph - N/A   Clear
11:35 PM 59.0 °F 50.0 °F 72% 30.07 in 10.0 mi SE 3.5 mph - N/A   Clear
11:55 PM 59.0 °F 50.0 °F 72% 30.07 in 10.0 mi SE 3.5 mph - N/A   Clear